Regional Weather Roundup
Issued by NWS San Angelo, TX

Current Version | Previous Version | Text Only | Print | Product List | Glossary On
Versions: 1 2 3 4 5 6 7 8 9 10 11 12 13 14 15 16 17 18 19 20 21 22 23 24 25 26 27 28 29 30 31 32 33 34 35 36 37 38 39 40 41 42 43 44 45 46 47 48 49 50
000
ASUS44 KSJT 161510
RWRSJT
WEST CENTRAL TEXAS REGIONAL WEATHER ROUNDUP
NATIONAL WEATHER SERVICE SAN ANGELO TX
900 AM CST SAT DEC 16 2017

NOTE: "FAIR" INDICATES FEW OR NO CLOUDS BELOW 12,000 FEET WITH NO
SIGNIFICANT WEATHER AND/OR OBSTRUCTIONS TO VISIBILITY.

TXZ049-054-064>066-071>073-076>078-098-099-113-114-127-128-139-140-
154-155-168>170-161600
...LOCATIONS ACROSS WEST CENTRAL TEXAS...

CITY           SKY/WX    TMP DP  RH WIND       PRES   REMARKS
SAN ANGELO     SUNNY     42  32  67 SW5       30.06F WCI  39
ABILENE        MOSUNNY   41  29  62 S7        30.06F WCI  36
DYESS AFB      MOSUNNY   43  27  54 S10       30.04F WCI  37
JUNCTION       CLOUDY    39  34  82 CALM      30.09F
SWEETWATER     SUNNY     46  24  43 S17       30.05S WCI  38
BROWNWOOD      CLOUDY    39  28  65 SE3       30.11F
COLEMAN        MOSUNNY   39  29  66 SW9       30.10R WCI  33
SONORA         CLOUDY    43  32  65 CALM      30.11F
OZONA          FAIR      39  32  75 S8        30.09S WCI  34
BRADY          NOT AVBL
$$

TEXAS PANHANDLE/OKLAHOMA PANHANDLE

CITY           SKY/WX    TMP DP  RH WIND       PRES   REMARKS
AMARILLO       CLOUDY    33  23  66 S14       29.85S WCI  23
BORGER         CLOUDY    40  22  48 SW12G20   29.82F WCI  33
CANADIAN       CLOUDY    40  26  59 CALM      29.85F
DALHART        CLOUDY    29  20  69 SW8       29.78F WCI  21
DUMAS          CLOUDY    30  19  63 S10       29.79S WCI  21
GUYMON         NOT AVBL
HEREFORD       CLOUDY    32  24  73 MISG      29.86S
PAMPA          SUNNY     39  24  54 SW15      29.84S WCI  31
PERRYTON       CLOUDY    36  24  61 S13       29.80S WCI  28
$$

SOUTHERN PANHANDLE/SOUTH PLAINS/ROLLING PLAINS

CITY           SKY/WX    TMP DP  RH WIND       PRES   REMARKS
LUBBOCK        CLOUDY    34  26  72 SW12      29.95F WCI  25
SNYDER         SUNNY     35  27  74 S8        30.02F WCI  28
CHILDRESS      CLOUDY    36  25  64 S10       29.97F WCI  28
SEMINOLE       CLOUDY    32  28  83 S8        29.98S WCI  25
$$

PERMIAN BASIN

CITY           SKY/WX    TMP DP  RH WIND       PRES   REMARKS
MIDLAND        SUNNY     39  27  62 S14       30.00F WCI  31
ODESSA         SUNNY     40  28  62 S14       30.01S WCI  32
WINK           CLOUDY    34  28  79 SE9       29.98F WCI  27
$$

FAR WEST/SOUTHWEST MOUNTAINS/TRANS PECOS

CITY           SKY/WX    TMP DP  RH WIND       PRES   REMARKS
ALPINE         MOSUNNY   40  30  69 SW9       30.06F WCI  34
DRYDEN           N/A     41  33  73 N6        30.03F WCI  37
EL PASO        SUNNY     33  23  66 W5        29.97S WCI  29
FORT STOCKTON  CLOUDY    41  31  67 SW8       30.01F WCI  36
GUADALUPE PASS CLOUDY    29  21  72 SW21      29.94F WCI  16
MARFA          NOT AVBL
PECOS          SUNNY     32  28  87 E3        30.00S
$$

DALLAS/FORT WORTH METROPLEX

CITY           SKY/WX    TMP DP  RH WIND       PRES   REMARKS
DFW AIRPORT    PTSUNNY   45  31  58 S6        30.11F
FTW MEACHAM    MOSUNNY   45  31  58 S7        30.12F
DAL-EXECUTIVE  CLOUDY    48  32  53 VRB5      30.12S
GRAND PRAIRIE  SUNNY     45  28  53 S6        30.15S
ADDISON        SUNNY     43  30  61 SE5       30.14S
MESQUITE       SUNNY     39  28  65 SE5       30.17  WCI  36
LANCASTER      CLOUDY    40  27  61 S5        30.16F WCI  36
$$

NORTH CENTRAL TEXAS

CITY           SKY/WX    TMP DP  RH WIND       PRES   REMARKS
SHRMAN/DENISON MOSUNNY   46  29  51 S13       30.14R
GAINESVILLE    MOSUNNY   35  27  70 CALM      30.14R
BRIDGEPORT     CLOUDY    33  26  76 CALM      30.13S
DENTON         CLOUDY    39  31  72 E3        30.12S
WAXAHACHIE     MOSUNNY   42  33  69 CALM      30.15S
GRANBURY       MOSUNNY   43  32  64 E3        30.12F
$$

WESTERN NORTH TEXAS

CITY           SKY/WX    TMP DP  RH WIND       PRES   REMARKS
WICHITA FALLS  CLOUDY    42  25  50 S10       30.04F WCI  36
VERNON         CLOUDY    38  20  48 S12       30.03F WCI  31
BRECKENRIDGE   MOSUNNY   44  29  55 S9        30.08S WCI  39
COMANCHE       CLOUDY    43  32  64 CALM      30.12R
$$

CENTRAL AND SOUTH CENTRAL TEXAS

CITY           SKY/WX    TMP DP  RH WIND       PRES   REMARKS
AUSTIN/BERGSTM CLOUDY    46  40  79 CALM      30.17R
WACO           CLOUDY    42  35  76 CALM      30.15F
HILLSBORO      PTSUNNY   43  34  69 S5        30.14F
TEMPLE         PTSUNNY   43  35  73 S7        30.16S WCI  39
KILLEEN-GRAY   CLOUDY    44  35  70 S6        30.13S
FORT HOOD      CLOUDY    43  35  73 S3        30.11S
GEORGETOWN     CLOUDY    44  36  73 CALM      30.18R
LAGO VISTA     CLOUDY    47  39  72 MISG      30.15R
SAN MARCOS     CLOUDY    45  39  79 CALM      30.16F
NEW BRAUNFELS  LGT RAIN  47  41  80 CALM      30.14F
RANDOLPH AFB   LGT RAIN  46  42  84 CALM      30.15F
SAN ANTONIO    CLOUDY    48  41  76 E5        30.15F
STINSON        LGT RAIN  48  44  86 SE6       30.14F
PLEASANTON     NOT AVBL
LA GRANGE      CLOUDY    49  42  79 CALM      30.17S
GIDDINGS       CLOUDY    45  39  78 SE3       30.18S HAZE
$$

EAST TEXAS

CITY           SKY/WX    TMP DP  RH WIND       PRES   REMARKS
PARIS          CLOUDY    41  31  67 S8        30.17S WCI  36
CLARKSVILLE    NOT AVBL
TYLER          PTSUNNY   43  33  68 S9        30.19R WCI  38
LONGVIEW       CLOUDY    44  37  76 S6        30.20R
PALESTINE      MOSUNNY   47  35  63 SE5       30.20S
NACOGDOCHES    CLOUDY    36  35  96 SE5       30.23S WCI  32
$$

TEXAS HILL COUNTRY AND EDWARDS PLATEAU

CITY           SKY/WX    TMP DP  RH WIND       PRES   REMARKS
LLANO          CLOUDY    39  34  81 CALM      30.16F
HORSESHOE BAY  CLOUDY    47  38  73 CALM      30.13F
KERRVILLE      CLOUDY    41  37  83 CALM      30.12R
FREDERICKSBRG  CLOUDY    43  35  73 CALM      30.11S
ROCKSPRINGS    NOT AVBL
HONDO          PTSUNNY   48  41  76 E6        30.13F
UVALDE         PTSUNNY   45  41  86 E6        30.13S
DEL RIO        CLOUDY    46  40  79 SE8       30.11R
$$

SOUTHEAST TEXAS

CITY           SKY/WX    TMP DP  RH WIND       PRES   REMARKS
COLLEGE STN    CLOUDY    47  39  74 SE5       30.19S
CALDWELL       CLOUDY    44  39  82 SE3       30.19S
CROCKETT         N/A     39  36  87 CALM      30.23F
BRENHAM        CLOUDY    47  41  78 CALM      30.21S
HUNTSVILLE     CLOUDY    48  37  65 VRB3      30.20S
CONROE         CLOUDY    46  42  86 SE3       30.22S
HOUSTON BUSH   CLOUDY    49  42  77 E5        30.22S
HOUSTON HOBBY  CLOUDY    51  40  65 E6        30.21S
PERLAND        CLOUDY    51  41  68 E8        30.22S
WHARTON        CLOUDY    49  38  66 E3        30.23R
$$

THE UPPER TEXAS COAST

CITY           SKY/WX    TMP DP  RH WIND       PRES   REMARKS
ORANGE         CLOUDY    48  39  71 E9        30.26F
PORT ARTHUR    CLOUDY    50  36  58 E13       30.23F
GALVESTON      CLOUDY    57  42  57 E10       30.22S
ANGLETON       CLOUDY    53  39  59 NE5       30.22R
BAY CITY       CLOUDY    52  40  62 NE5       30.21S
$$

TEXAS COASTAL BEND, RIO GRANDE PLAINS DEEP SOUTH TEXAS

CITY           SKY/WX    TMP DP  RH WIND       PRES   REMARKS
VICTORIA       CLOUDY    50  39  66 E7        30.20F
BEEVILLE       CLOUDY    49  40  70 NE6       30.16F
ROCKPORT       CLOUDY    52  43  71 NE9       30.16F
PORT ARANSAS   NOT AVBL
PORT LAVACA    CLOUDY    51  41  70 NE10      30.19F
CORPUS CHRISTI CLOUDY    52  41  66 NE12      30.15F
KINGSVILLE NAS CLOUDY    51  45  79 N8        30.16R
COTULLA        CLOUDY    48  45  89 CALM      30.14F
LAREDO         CLOUDY    48  44  86 MISG      30.16S
BROWNSVILLE    CLOUDY    51  49  92 N9        30.10F
PORT ISABEL    CLOUDY    50  50 100 NW12      30.10F FOG
HEBBRONVILLE   CLOUDY    47  42  80 CALM      30.16S
MCALLEN        CLOUDY    51  45  79 NW7       30.16R
WESLACO        CLOUDY    49  44  81 N10       30.14R
FALFURRIAS     CLOUDY    51  45  80 CALM      30.15F
EDINBURG       CLOUDY    51  45  79 NW8       30.15S
$$




USA.gov is the U.S. government's official web portal to all federal, state and local government web resources and services.